#timestamp,LO_Frequency,Hit,StdDev 
1551042015.2,286046999.1,N
1551042035.1,286046999.1,N
1551042036.0,286046999.1,N
1551042055.8,286047001.2,N
1551042075.6,286047001.1,N
1551042095.5,286047000.3,N
1551042115.3,286047001.1,N
1551042135.2,286047001.2,N
1551042155.9,286047001.1,N
1551042175.7,286046998.7,N
1551042195.6,286047000.9,N
1551042215.4,286046999.8,N
1551042235.3,286047001.6,N
1551042255.1,286046999.7,N
1551042256.0,286046999.7,N
1551042275.8,286047002.8,N
1551042295.7,286047002.2,N
1551042315.5,286047001.8,N
1551042335.4,286047003.5,N
1551042355.2,286047003.0,N
1551042375.0,286047004.1,N
1551042375.9,286047004.1,N
1551042395.8,286047001.6,N
1551042415.6,286047001.9,N
1551042435.4,286047001.0,N
1551042455.3,286046999.9,N
1551042475.1,286047001.7,N
1551042495.9,286047000.2,N
1551042515.7,286047000.4,N
1551042535.5,286047000.3,N
1551042555.4,286047000.3,N
1551042575.2,286047000.2,N
1551042595.1,286047001.4,N
1551042596.0,286047001.4,N
1551042615.8,286047002.3,N
1551042635.6,286047001.5,N
1551042655.5,286047000.2,N
1551042675.3,286047002.3,N
1551042695.1,286047000.0,N
1551042715.9,286046998.5,N
1551042735.7,286047000.7,N
1551042755.6,286046999.5,N
1551042775.4,286046996.7,N
1551042795.2,286046996.9,N
1551042815.1,286046997.0,N
1551042816.0,286046997.0,N
1551042835.8,286046999.5,N
1551042855.7,286046999.5,N
1551042875.5,286046996.5,N
1551042895.3,286046999.5,N
1551042915.2,286046999.3,N
1551042935.0,286047000.0,N
1551042935.9,286047000.0,N
1551042955.7,286047002.6,N
1551042975.6,286047004.4,N
1551042995.4,286047004.4,N
1551043015.3,286047003.5,N
1551043035.1,286047004.0,N
1551043036.0,286047004.0,N
1551043055.8,286047001.6,N
1551043075.7,286047001.9,N
1551043095.5,286047002.1,N
1551043115.3,286047002.5,N
1551043135.2,286047001.3,N
1551043155.0,286047003.3,N
1551043155.9,286047003.3,N
1551043175.8,286047003.5,N
1551043195.6,286047003.7,N
1551043215.4,286047001.7,N
1551043235.3,286047003.4,N
1551043255.1,286047003.7,N
1551043275.9,286047003.8,N
1551043295.7,286047005.7,N
1551043315.5,286047005.8,N
1551043335.4,286047001.4,N
1551043355.2,286047001.7,N
1551043375.0,286047000.1,N
1551043375.9,286047000.1,N
1551043395.8,286047002.6,N
1551043415.6,286046999.9,N
1551043435.5,286047001.8,N
1551043455.3,286047003.9,N
1551043475.1,286047001.7,N
1551043495.9,286047000.9,N
1551043515.7,286046998.9,N
1551043535.5,286046999.6,N
1551043555.4,286046998.2,N
1551043575.2,286047000.5,N
1551043595.1,286047000.6,N
1551043596.0,286047000.6,N
1551043615.8,286047001.0,N
1551043635.6,286046998.6,N
1551043655.5,286046999.2,N
1551043675.3,286046996.9,N
1551043695.1,286046995.0,N
1551043715.9,286046996.6,N
1551043735.7,286046998.6,N
1551043755.6,286046996.5,N
1551043775.4,286046997.9,N
1551043795.2,286046996.3,N
1551043815.1,286046993.4,N
1551043816.0,286046993.4,N
1551043835.8,286046995.2,N
1551043855.6,286046995.4,N
1551043875.5,286046997.5,N
1551043895.3,286046996.6,N
1551043915.2,286046999.4,N
1551043935.9,286046997.5,N
1551043955.7,286046997.6,N
1551043975.6,286046995.1,N
1551043995.4,286046997.6,N
1551044015.3,286046995.0,N
1551044035.1,286046997.3,N
1551044036.0,286046997.3,N
1551044055.8,286046995.1,N
1551044075.7,286046997.4,N
1551044095.5,286046998.6,N
1551044115.3,286046999.3,N
1551044135.2,286046997.2,N
1551044155.0,286046998.2,N
1551044155.9,286046998.2,N
1551044175.8,286047000.9,N
1551044195.6,286046998.4,N
1551044215.4,286046999.0,N
1551044235.3,286046999.3,N
1551044255.1,286046999.5,N
1551044275.9,286046999.1,N
1551044295.7,286046997.0,N
1551044315.5,286046999.2,N
1551044335.4,286046996.8,N
1551044355.2,286046999.5,N
1551044375.0,286046998.7,N
1551044375.9,286046998.7,N
1551044395.8,286046999.1,N
1551044415.6,286046998.3,N
1551044435.5,286047000.9,N
1551044455.3,286046999.0,N
1551044475.1,286046999.2,N
1551044495.9,286047002.7,N
1551044515.7,286047000.8,N
1551044535.5,286046999.1,N
1551044555.4,286046996.8,N
1551044575.2,286046998.8,N
1551044595.1,286047000.6,N
1551044596.0,286047000.6,N
1551044615.8,286047000.6,N
1551044635.6,286046999.9,N
1551044655.5,286047000.6,N
1551044675.3,286046999.7,N
1551044695.2,286047000.3,N
1551044715.9,286047001.5,N
1551044735.7,286046999.9,N
1551044755.6,286046998.1,N
1551044775.4,286047000.6,N
1551044795.2,286046998.5,N
1551044815.1,286047002.8,N
1551044816.0,286047002.8,N
1551044835.8,286046999.8,N
1551044855.7,286047000.1,N
1551044875.5,286047002.3,N
1551044895.3,286047000.8,N
1551044915.2,286046999.7,N
1551044935.0,286047000.0,N
1551044935.9,286047000.0,N
1551044955.7,286046998.2,N
1551044975.6,286046997.0,N
1551044995.4,286047000.4,N
1551045015.3,286046999.7,N
1551045035.1,286047000.9,N
1551045055.8,286046998.1,N
1551045075.7,286047000.5,N
1551045095.5,286047000.3,N
1551045115.4,286047000.9,N
1551045135.2,286047000.5,N
1551045155.0,286046999.9,N
1551045155.9,286046999.9,N
1551045175.8,286047000.6,N
1551045195.6,286047000.2,N
1551045215.4,286047001.2,N
1551045235.3,286047001.1,N
1551045255.1,286046998.5,N
1551045275.9,286046998.4,N
1551045295.7,286047001.2,N
1551045315.5,286047001.1,N
1551045335.4,286046999.5,N
1551045355.2,286046998.7,N
1551045375.1,286047000.0,N
1551045376.0,286047000.0,N
1551045395.8,286047000.9,N
1551045415.6,286046998.6,N
1551045435.5,286047000.3,N
1551045455.3,286047000.6,N
1551045475.1,286047000.5,N
1551045495.9,286047002.4,N
1551045515.7,286047000.6,N
1551045535.6,286047002.2,N
1551045555.4,286047002.2,N
1551045575.2,286046999.9,N
1551045595.1,286047000.3,N
1551045596.0,286047000.3,N
